GW3100 Weather Reports


Display with metric or nautical units.
time (UTC)temp
F
wind
direction
speed
MPH
gust
MPH
rain 1hr
in
rain 24hr
in
rain mn
in
humidity
%
barometer
mb
20260507085113 54 200 0.0 3.0 0.00 0.00 0.00 76 1023.2
20260507084610 54 223 1.0 2.0 0.00 0.00 0.00 75 1023.0
20260507084107 55 194 0.0 1.0 0.00 0.00 0.00 76 1023.2
20260507083603 55 190 0.0 1.0 0.00 0.00 0.00 76 1023.1
20260507083100 55 186 0.0 1.0 0.00 0.00 0.00 76 1023.1
20260507082556 55 195 0.0 0.0 0.00 0.00 0.00 76 1022.9
20260507082053 55 196 0.0 1.0 0.00 0.00 0.00 76 1023.0
20260507081549 55 199 0.0 1.0 0.00 0.00 0.00 77 1023.0
20260507081046 55 203 0.0 1.0 0.00 0.00 0.00 77 1023.1
20260507080541 55 199 0.0 0.0 0.00 0.00 0.00 78 1023.0
20260507080033 55 200 0.0 2.0 0.00 0.00 0.00 78 1023.2
20260507075528 55 205 0.0 0.0 0.00 0.00 0.00 78 1023.0
20260507075024 55 201 0.0 0.0 0.00 0.00 0.00 78 1023.0
20260507074521 55 202 0.0 0.0 0.00 0.00 0.00 78 1023.0
20260507074020 55 213 0.0 1.0 0.00 0.00 0.00 78 1023.1
20260507073516 55 198 0.0 1.0 0.00 0.00 0.00 78 1023.1
20260507073012 55 198 0.0 1.0 0.00 0.00 0.00 78 1023.2
20260507072510 55 198 0.0 1.0 0.00 0.00 0.00 78 1023.2
20260507072007 55 200 0.0 1.0 0.00 0.00 0.00 78 1022.9
20260507071504 55 202 0.0 0.0 0.00 0.00 0.00 78 1022.9
20260507071000 55 198 0.0 0.0 0.00 0.00 0.00 78 1023.1
20260507070458 55 209 1.0 1.0 0.00 0.00 0.00 78 1022.9
20260507065954 55 200 2.0 3.0 0.00 0.00 0.00 77 1022.9
20260507065451 55 201 0.0 1.0 0.00 0.00 0.00 77 1022.8
20260507064948 55 193 0.0 1.0 0.00 0.00 0.00 78 1022.9
20260507064446 55 178 0.0 1.0 0.00 0.00 0.00 78 1022.9
20260507063944 55 200 0.0 1.0 0.00 0.00 0.00 77 1023.0
20260507063441 55 202 1.0 2.0 0.00 0.00 0.00 78 1023.0
20260507062938 55 215 1.0 3.0 0.00 0.00 0.00 78 1023.0
20260507062435 55 197 0.0 1.0 0.00 0.00 0.00 78 1023.1
20260507061932 55 198 0.0 1.0 0.00 0.00 0.00 78 1023.1
20260507061430 55 200 0.0 1.0 0.00 0.00 0.00 78 1023.1
20260507060928 55 199 0.0 2.0 0.00 0.00 0.00 78 1023.1
20260507060425 55 223 1.0 3.0 0.00 0.00 0.00 78 1023.0
20260507055921 55 189 0.0 3.0 0.00 0.00 0.00 78 1023.2
20260507055416 55 196 0.0 1.0 0.00 0.00 0.00 78 1023.0
20260507054908 55 199 1.0 2.0 0.00 0.00 0.00 78 1022.9
20260507054404 55 196 0.0 2.0 0.00 0.00 0.00 77 1022.9
20260507053901 55 203 0.0 0.0 0.00 0.00 0.00 77 1022.8
20260507053359 56 199 1.0 2.0 0.00 0.00 0.00 77 1023.1
20260507052858 56 217 0.0 2.0 0.00 0.00 0.00 77 1022.9
20260507052354 56 199 0.0 2.0 0.00 0.00 0.00 77 1022.9
20260507051852 56 205 0.0 2.0 0.00 0.00 0.00 77 1022.9
20260507051349 56 210 0.0 1.0 0.00 0.00 0.00 76 1023.0
20260507050846 56 203 2.0 3.0 0.00 0.00 0.00 76 1022.8
20260507050342 56 174 2.0 7.0 0.00 0.00 0.00 76 1023.0
20260507045839 56 220 1.0 2.0 0.00 0.00 0.00 76 1023.0
20260507045336 57 210 0.0 2.0 0.00 0.00 0.00 76 1023.2
20260507044833 57 202 0.0 2.0 0.00 0.00 0.00 76 1023.0
20260507044329 57 199 0.0 1.0 0.00 0.00 0.00 76 1022.9
20260507043825 57 176 1.0 3.0 0.00 0.00 0.00 76 1023.0
20260507043322 57 142 0.0 1.0 0.00 0.00 0.00 75 1023.0
20260507042818 57 196 0.0 3.0 0.00 0.00 0.00 75 1022.8
20260507042314 58 260 1.0 2.0 0.00 0.00 0.00 75 1022.8
20260507041811 58 213 0.0 2.0 0.00 0.00 0.00 75 1022.7
20260507041308 58 210 1.0 4.0 0.00 0.00 0.00 75 1022.8
20260507040805 58 296 3.0 4.0 0.00 0.00 0.00 75 1022.7
20260507040301 59 205 0.0 3.0 0.00 0.00 0.00 75 1022.7
20260507035757 59 202 1.0 3.0 0.00 0.00 0.00 75 1022.5
20260507035252 59 192 0.0 3.0 0.00 0.00 0.00 75 1022.4
20260507034750 59 260 2.0 2.0 0.00 0.00 0.00 75 1022.6
20260507034247 59 216 0.0 2.0 0.00 0.00 0.00 75 1022.3
20260507033746 59 197 0.0 1.0 0.00 0.00 0.00 75 1022.5
20260507033242 59 184 0.0 2.0 0.00 0.00 0.00 75 1022.4
20260507032739 59 217 1.0 2.0 0.00 0.00 0.00 75 1022.3
20260507032236 59 191 1.0 3.0 0.00 0.00 0.00 75 1022.3
20260507031732 60 179 1.0 2.0 0.00 0.00 0.00 75 1021.9
20260507031229 60 196 0.0 3.0 0.00 0.00 0.00 75 1021.8
20260507030726 60 191 0.0 2.0 0.00 0.00 0.00 75 1021.8
20260507030223 60 291 1.0 6.0 0.00 0.00 0.00 75 1021.9
20260507025720 60 191 0.0 3.0 0.00 0.00 0.00 74 1021.8
20260507025217 60 250 1.0 3.0 0.00 0.00 0.00 74 1021.7
20260507024716 61 205 1.0 3.0 0.00 0.00 0.00 73 1021.5
20260507024213 61 279 2.0 3.0 0.00 0.00 0.00 73 1021.5
20260507023708 61 201 0.0 0.0 0.00 0.00 0.00 72 1021.6
20260507023205 62 197 0.0 2.0 0.00 0.00 0.00 72 1021.5
20260507022702 62 196 0.0 2.0 0.00 0.00 0.00 71 1021.6
20260507022158 63 195 0.0 0.0 0.00 0.00 0.00 70 1021.5
20260507021655 63 193 1.0 2.0 0.00 0.00 0.00 70 1021.3
20260507021150 63 221 1.0 2.0 0.00 0.00 0.00 69 1021.7
20260507020649 64 200 0.0 1.0 0.00 0.00 0.00 69 1021.4
20260507020144 64 202 0.0 1.0 0.00 0.00 0.00 68 1021.7
20260507015643 64 221 0.0 2.0 0.00 0.00 0.00 68 1021.7
20260507015140 65 215 1.0 3.0 0.00 0.00 0.00 68 1021.8
20260507014636 65 200 0.0 1.0 0.00 0.00 0.00 68 1021.8
20260507014132 65 207 0.0 2.0 0.00 0.00 0.00 69 1021.6
20260507013629 65 213 0.0 2.0 0.00 0.00 0.00 68 1021.6
20260507013126 65 227 0.0 2.0 0.00 0.00 0.00 68 1021.6
20260507012624 66 190 0.0 3.0 0.00 0.00 0.00 67 1021.6
20260507012119 66 198 0.0 3.0 0.00 0.00 0.00 68 1021.5
20260507011618 66 154 1.0 3.0 0.00 0.00 0.00 67 1021.4
20260507011113 66 196 0.0 1.0 0.00 0.00 0.00 70 1021.3
20260507010608 67 191 0.0 0.0 0.00 0.00 0.00 69 1021.7
20260507010104 67 198 0.0 2.0 0.00 0.00 0.00 69 1021.6
20260507005602 67 218 1.0 2.0 0.00 0.00 0.00 68 1021.7
20260507005058 68 200 0.0 1.0 0.00 0.00 0.00 68 1021.5
20260507004555 67 205 0.0 2.0 0.00 0.00 0.00 68 1021.5
20260507004052 67 201 0.0 2.0 0.00 0.00 0.00 69 1021.6
20260507003548 67 201 0.0 3.0 0.00 0.00 0.00 68 1021.5
20260507003043 68 198 0.0 3.0 0.00 0.00 0.00 67 1021.4
20260507002540 68 194 0.0 0.0 0.00 0.00 0.00 67 1021.6
20260507002036 68 229 0.0 2.0 0.00 0.00 0.00 66 1021.5
20260507001532 68 240 0.0 2.0 0.00 0.00 0.00 66 1021.7
20260507001025 67 199 0.0 2.0 0.00 0.00 0.00 66 1021.8
20260507000521 67 212 1.0 1.0 0.00 0.00 0.00 66 1021.5
20260507000016 67 197 0.0 0.0 0.00 0.00 0.00 67 1021.3
20260506235514 67 199 0.0 0.0 0.00 0.00 0.00 67 1021.4
20260506235010 68 202 2.0 2.0 0.00 0.00 0.00 66 1021.4
20260506234507 68 202 0.0 3.0 0.00 0.00 0.00 66 1021.4
20260506234004 68 205 0.0 1.0 0.00 0.00 0.00 64 1021.6
20260506233501 68 204 0.0 0.0 0.00 0.00 0.00 66 1021.4
20260506232957 67 200 0.0 0.0 0.00 0.00 0.00 66 1021.5
20260506232454 67 229 0.0 0.0 0.00 0.00 0.00 64 1021.5
20260506231950 68 212 1.0 2.0 0.00 0.00 0.00 64 1021.3
20260506231447 68 176 1.0 1.0 0.00 0.00 0.00 65 1021.5
20260506230944 68 216 0.0 0.0 0.00 0.00 0.00 63 1021.5
20260506230440 69 193 0.0 0.0 0.00 0.00 0.00 64 1021.6
20260506225937 70 202 0.0 0.0 0.00 0.00 0.00 65 1021.7
20260506225435 68 202 0.0 1.0 0.00 0.00 0.00 64 1021.7
20260506224931 68 203 1.0 1.0 0.00 0.00 0.00 63 1021.7
20260506224429 68 207 0.0 0.0 0.00 0.00 0.00 66 1021.8
20260506223925 67 201 0.0 1.0 0.00 0.00 0.00 66 1021.8
20260506223420 66 205 0.0 1.0 0.00 0.00 0.00 68 1021.9
20260506222918 66 171 0.0 0.0 0.00 0.00 0.00 69 1021.8
20260506222414 66 161 0.0 0.0 0.00 0.00 0.00 67 1022.1
20260506221912 66 200 0.0 0.0 0.00 0.00 0.00 69 1022.0
20260506221408 66 202 0.0 0.0 0.00 0.00 0.00 72 1021.9
20260506220906 65 176 0.0 0.0 0.00 0.00 0.00 72 1022.0
20260506220402 65 212 0.0 1.0 0.00 0.00 0.00 71 1022.2
20260506215858 66 193 0.0 1.0 0.00 0.00 0.00 71 1022.2
20260506215354 66 203 0.0 0.0 0.00 0.00 0.00 70 1022.2
20260506214850 66 202 0.0 1.0 0.00 0.00 0.00 71 1022.2
20260506214347 66 206 0.0 0.0 0.00 0.00 0.00 71 1021.9
20260506213845 66 208 0.0 1.0 0.00 0.00 0.00 70 1022.2
20260506213342 66 202 0.0 0.0 0.00 0.00 0.00 69 1022.5
20260506212839 65 220 1.0 3.0 0.00 0.00 0.00 71 1022.1
20260506212336 65 232 1.0 3.0 0.00 0.00 0.00 71 1022.4
20260506211830 65 200 0.0 1.0 0.00 0.00 0.00 71 1022.5
20260506211327 65 200 0.0 0.0 0.00 0.00 0.00 72 1022.7
20260506210824 65 229 0.0 0.0 0.00 0.00 0.00 72 1022.7
20260506210321 64 228 0.0 1.0 0.00 0.00 0.00 74 1022.6
20260506205818 64 201 0.0 2.0 0.00 0.00 0.00 73 1022.7
20260506205314 64 213 0.0 0.0 0.00 0.00 0.00 74 1022.5
20260506204810 64 207 0.0 1.0 0.00 0.00 0.00 75 1022.7
20260506204308 64 224 0.0 1.0 0.00 0.00 0.00 74 1022.4
20260506203806 63 210 0.0 0.0 0.00 0.00 0.00 76 1022.4
20260506203303 63 182 0.0 0.0 0.00 0.00 0.00 75 1022.6
20260506202800 63 205 0.0 0.0 0.00 0.00 0.00 76 1022.5
20260506202257 63 197 0.0 1.0 0.00 0.00 0.00 75 1022.7
20260506201753 63 203 0.0 0.0 0.00 0.00 0.00 75 1022.4
20260506201250 63 194 0.0 0.0 0.00 0.00 0.00 75 1022.7
20260506200747 62 203 0.0 1.0 0.00 0.00 0.00 75 1022.6
20260506200244 62 202 0.0 2.0 0.00 0.00 0.00 76 1022.7
20260506195740 62 196 0.0 0.0 0.00 0.00 0.00 77 1022.6
20260506195236 62 216 0.0 1.0 0.00 0.00 0.00 77 1022.8
20260506194734 62 187 0.0 0.0 0.00 0.00 0.00 78 1022.7
20260506194230 62 206 0.0 0.0 0.00 0.00 0.00 78 1023.1
20260506193728 62 193 0.0 0.0 0.00 0.00 0.00 77 1023.1
20260506193225 62 203 0.0 0.0 0.00 0.00 0.00 77 1023.1
20260506192721 62 203 0.0 0.0 0.00 0.00 0.00 77 1022.9
20260506192218 61 209 0.0 0.0 0.00 0.00 0.00 78 1022.6
20260506191715 62 199 0.0 0.0 0.00 0.00 0.00 78 1022.9
20260506191211 62 222 0.0 0.0 0.00 0.00 0.00 77 1022.7
20260506190709 62 210 0.0 0.0 0.00 0.00 0.00 77 1022.9
20260506190205 62 187 0.0 0.0 0.00 0.00 0.00 78 1022.8
20260506185702 62 187 0.0 0.0 0.00 0.00 0.00 77 1022.8
20260506185158 62 201 0.0 0.0 0.00 0.00 0.00 77 1022.7
20260506184656 61 196 0.0 0.0 0.00 0.00 0.00 78 1022.9
20260506184153 61 197 0.0 0.0 0.00 0.00 0.00 78 1022.7
20260506183650 60 194 0.0 0.0 0.00 0.00 0.00 80 1022.8
20260506183145 60 211 0.0 0.0 0.00 0.00 0.00 79 1022.7
20260506182643 60 207 0.0 0.0 0.00 0.00 0.00 79 1022.9
20260506182140 60 193 0.0 0.0 0.00 0.00 0.00 81 1022.8
20260506181638 60 203 0.0 0.0 0.00 0.00 0.00 81 1022.8
20260506181135 59 215 0.0 0.0 0.00 0.00 0.00 80 1022.9
20260506180632 59 207 0.0 0.0 0.00 0.00 0.00 80 1022.8
20260506180128 60 207 0.0 0.0 0.00 0.00 0.00 79 1022.7
20260506175624 60 202 0.0 0.0 0.00 0.00 0.00 79 1022.7
20260506175120 60 205 0.0 1.0 0.00 0.00 0.00 79 1023.0
20260506174620 60 219 0.0 1.0 0.00 0.00 0.00 79 1022.9
20260506174116 59 203 0.0 0.0 0.00 0.00 0.00 81 1022.4
20260506173614 59 202 0.0 0.0 0.00 0.00 0.00 81 1022.5
20260506173110 59 202 0.0 0.0 0.00 0.00 0.00 81 1022.8
20260506172608 59 199 0.0 0.0 0.00 0.00 0.00 81 1022.7
20260506172103 59 207 0.0 0.0 0.00 0.00 0.00 81 1022.6
20260506171601 59 199 0.0 0.0 0.00 0.00 0.00 81 1022.4
20260506171058 59 199 0.0 0.0 0.00 0.00 0.00 81 1022.6
20260506170555 59 202 0.0 0.0 0.00 0.00 0.00 81 1022.4
20260506170047 59 205 0.0 0.0 0.00 0.00 0.00 80 1022.5
20260506165545 59 202 0.0 0.0 0.00 0.00 0.00 81 1022.5
20260506165036 59 199 0.0 0.0 0.00 0.00 0.00 81 1022.3
20260506164533 59 200 0.0 1.0 0.00 0.00 0.00 80 1022.5
20260506164030 59 201 0.0 0.0 0.00 0.00 0.00 80 1022.4
20260506163526 59 226 0.0 0.0 0.00 0.00 0.00 80 1022.4
20260506163022 59 205 0.0 0.0 0.00 0.00 0.00 80 1022.4
20260506162518 59 205 0.0 0.0 0.00 0.00 0.00 80 1022.1
20260506162015 59 212 0.0 1.0 0.00 0.00 0.00 81 1022.2
20260506161513 59 204 0.0 0.0 0.00 0.00 0.00 81 1022.2
20260506161009 59 204 0.0 0.0 0.00 0.00 0.00 81 1022.2
20260506160507 58 205 0.0 0.0 0.00 0.00 0.00 82 1022.0
20260506160004 58 208 0.0 1.0 0.00 0.00 0.00 81 1021.7
20260506155502 58 224 2.0 2.0 0.00 0.00 0.00 81 1021.9
20260506153634 56 199 0.0 0.0 0.00 0.00 0.00 85 1022.5
20260506153132 56 202 0.0 0.0 0.00 0.00 0.00 84 1022.7
20260506152628 56 205 0.0 1.0 0.00 0.00 0.00 85 1022.5
20260506152126 56 200 0.0 1.0 0.00 0.00 0.00 84 1022.7
20260506151625 56 207 0.0 1.0 0.00 0.00 0.00 84 1022.7
20260506151121 56 189 0.0 0.0 0.00 0.00 0.00 84 1022.6
20260506150618 56 202 0.0 0.0 0.00 0.00 0.00 85 1022.4
20260506150115 56 202 0.0 1.0 0.00 0.00 0.00 85 1022.4
20260506145612 56 202 1.0 2.0 0.00 0.00 0.00 85 1022.1
20260506145109 56 203 0.0 3.0 0.00 0.00 0.00 85 1022.3
20260506144606 57 207 0.0 1.0 0.00 0.00 0.00 85 1022.3
20260506144102 57 201 0.0 2.0 0.00 0.00 0.00 85 1022.2
20260506143601 57 227 1.0 2.0 0.00 0.00 0.00 85 1022.0
20260506143058 57 219 0.0 0.0 0.00 0.00 0.00 84 1022.0
20260506142556 57 198 0.0 0.0 0.00 0.00 0.00 85 1022.0
20260506142054 57 214 0.0 0.0 0.00 0.00 0.00 85 1021.5
20260506141551 57 214 0.0 0.0 0.00 0.00 0.00 85 1021.8
20260506141049 57 205 0.0 0.0 0.00 0.00 0.00 85 1021.8
20260506140547 57 201 0.0 0.0 0.00 0.00 0.00 85 1021.8
20260506140044 56 205 0.0 0.0 0.00 0.00 0.00 86 1021.6
20260506135541 56 205 0.0 0.0 0.00 0.00 0.00 86 1021.6
20260506135037 56 205 0.0 0.0 0.00 0.00 0.00 86 1021.5
20260506134534 56 205 0.0 0.0 0.00 0.00 0.00 86 1021.6
20260506134029 56 201 0.0 0.0 0.00 0.00 0.00 86 1021.4
20260506133527 56 201 0.0 0.0 0.00 0.00 0.00 86 1021.3
20260506133024 56 201 0.0 0.0 0.00 0.00 0.00 86 1021.6
20260506132521 56 201 0.0 0.0 0.00 0.00 0.00 86 1021.7
20260506132018 56 205 0.0 0.0 0.00 0.00 0.00 86 1021.4
20260506131515 56 202 0.0 0.0 0.00 0.00 0.00 86 1021.0
20260506131012 56 202 0.0 0.0 0.00 0.00 0.00 86 1021.2
20260506130508 56 202 0.0 0.0 0.00 0.00 0.00 86 1021.1
20260506130006 56 201 0.0 0.0 0.00 0.00 0.00 86 1021.0
20260506125504 56 202 0.0 0.0 0.00 0.00 0.00 86 1021.1
20260506125002 56 202 0.0 0.0 0.00 0.00 0.00 86 1021.1
20260506124459 56 202 0.0 0.0 0.00 0.00 0.00 86 1021.1
20260506123957 56 202 0.0 0.0 0.00 0.00 0.00 86 1021.0
20260506123455 56 202 0.0 0.0 0.00 0.00 0.00 85 1021.1
20260506122952 56 202 0.0 0.0 0.00 0.00 0.00 85 1021.2
20260506122449 56 201 0.0 0.0 0.00 0.00 0.00 85 1021.2
20260506121947 56 205 0.0 0.0 0.00 0.00 0.00 85 1021.1
20260506121444 56 205 0.0 0.0 0.00 0.00 0.00 85 1020.9
20260506120940 56 205 0.0 0.0 0.00 0.00 0.00 85 1020.9
20260506120438 56 221 0.0 0.0 0.00 0.00 0.00 85 1021.0
20260506115936 57 203 0.0 0.0 0.00 0.00 0.00 85 1020.9
20260506115434 57 203 0.0 0.0 0.00 0.00 0.00 85 1020.8
20260506114931 57 203 0.0 0.0 0.00 0.00 0.00 85 1020.6
20260506114429 57 205 0.0 0.0 0.00 0.00 0.00 85 1020.7
20260506113927 57 201 0.0 0.0 0.00 0.00 0.00 85 1020.5
20260506113425 57 207 0.0 0.0 0.00 0.00 0.00 84 1020.9
20260506112921 57 199 0.0 0.0 0.00 0.00 0.00 84 1020.7
20260506112419 57 205 0.0 0.0 0.00 0.00 0.00 84 1020.9
20260506111916 57 202 0.0 0.0 0.00 0.00 0.00 84 1020.4
20260506111414 57 210 0.0 0.0 0.00 0.00 0.00 84 1020.5
20260506110911 57 204 0.0 0.0 0.00 0.00 0.00 84 1020.6
20260506110408 57 200 0.0 0.0 0.00 0.00 0.00 84 1020.3
20260506105905 57 202 0.0 1.0 0.00 0.00 0.00 84 1020.3
20260506105401 57 209 0.0 1.0 0.00 0.00 0.00 83 1020.0
20260506104858 57 214 0.0 0.0 0.00 0.00 0.00 84 1020.2
20260506104356 57 202 0.0 0.0 0.00 0.00 0.00 84 1020.1
20260506103854 57 202 0.0 0.0 0.00 0.00 0.00 84 1019.9
20260506103351 57 202 0.0 0.0 0.00 0.00 0.00 83 1019.8
20260506102848 58 202 0.0 0.0 0.00 0.00 0.00 83 1019.8
20260506102346 58 198 0.0 0.0 0.00 0.00 0.00 83 1019.8
20260506101843 58 222 0.0 0.0 0.00 0.00 0.00 83 1019.7
20260506101339 58 203 0.0 0.0 0.00 0.00 0.00 84 1019.6
20260506100837 58 203 0.0 0.0 0.00 0.00 0.00 83 1019.5
20260506100335 58 203 0.0 0.0 0.00 0.00 0.00 83 1019.8
20260506095833 58 203 0.0 0.0 0.00 0.00 0.00 83 1019.6
20260506095330 58 203 0.0 0.0 0.00 0.00 0.00 83 1019.7
20260506094827 58 203 0.0 0.0 0.00 0.00 0.00 83 1019.6
20260506094326 58 203 0.0 0.0 0.00 0.00 0.00 83 1019.4
20260506093824 58 203 0.0 0.0 0.00 0.00 0.00 82 1019.4
20260506093320 58 203 0.0 0.0 0.00 0.00 0.00 83 1019.6
20260506092818 58 203 0.0 0.0 0.00 0.00 0.00 82 1019.7
20260506092316 58 199 0.0 0.0 0.00 0.00 0.00 82 1019.5
20260506091812 58 197 0.0 0.0 0.00 0.00 0.00 82 1019.5
20260506091310 58 195 0.0 0.0 0.00 0.00 0.00 82 1019.6
20260506090808 58 199 0.0 0.0 0.00 0.00 0.00 82 1019.3
20260506090305 58 198 0.0 0.0 0.00 0.00 0.00 83 1019.3
20260506085801 59 203 0.0 0.0 0.00 0.00 0.00 83 1019.3